Temperature
16 16 17 17 14 13 14 15 17 17 17 17 17 16 15 14 15 15 14 14 14 14 14 14 14 14 14 14 14 14 15 14 15 15 15 15 15 15 15 15 15 15 15 15 15 15 14 14 14
16 16 17 16 13 13 14 15 16 17 17 17 16 15 14 13 13 14 14 14 14 14 14 14 14 14 14 14 14 14 14 14 15 15 15 15 15 15 14 14 14 14 14 14 14 14 14 14 14
16 16 16 13 13 13 15 16 16 17 17 17 15 14 13 13 13 13 14 14 14 14 14 14 14 14 14 14 14 14 14 14 14 14 14 14 14 14 14 14 14 14 14 14 14 14 14 14 14
15 16 15 12 14 14 15 16 16 16 17 16 15 13 13 13 13 13 13 13 13 14 14 14 14 13 13 13 14 14 14 14 14 14 14 14 14 14 14 14 14 14 14 14 14 14 14 14 14
15 15 13 13 14 14 15 16 16 16 16 15 14 12 12 13 13 13 13 13 13 13 13 13 13 13 13 14 13 14 14 14 14 14 14 14 14 14 13 14 14 14 14 14 14 14 13 13 13
15 13 12 12 14 15 15 16 16 15 15 15 14 12 12 12 13 13 13 13 13 13 13 13 13 13 13 13 13 13 13 13 14 13 14 14 13 13 13 13 13 13 13 13 13 13 13 13 13
13 11 12 13 14 14 15 16 15 14 14 14 14 12 11 12 12 12 13 13 13 13 13 13 13 13 13 13 13 13 13 13 13 13 13 13 13 13 13 13 13 13 13 13 13 13 13 13 13
14 11 12 13 13 14 15 15 15 14 14 14 14 12 11 12 12 12 12 12 12 12 12 12 12 12 12 13 13 13 13 13 13 13 13 13 13 13 13 13 13 13 13 13 13 13 13 13 13
14 10 11 12 13 13 14 14 14 14 14 13 13 13 13 12 12 12 12 12 12 12 12 12 12 12 12 12 12 12 12 12 12 12 12 12 12 12 12 12 12 12 12 12 12 12 12 12 12
13 10 11 12 13 13 13 13 14 13 12 12 12 12 12 12 12 12 12 12 12 12 12 12 12 12 12 12 12 12 12 12 12 12 12 12 12 12 12 12 12 12 12 12 12 12 12 12 12
11 10 11 12 13 13 13 13 13 13 11 11 12 12 12 11 11 11 11 11 11 11 11 11 11 11 11 11 11 11 11 11 11 11 12 12 12 12 12 12 12 12 12 12 12 12 11 11 11
11 11 12 12 13 13 12 12 12 12 12 12 13 12 12 11 11 11 11 11 11 11 11 11 11 11 11 11 11 11 11 11 11 11 11 11 11 11 11 11 11 11 11 11 11 11 11 11 11
10 10 11 12 12 12 12 11 11 11 12 12 12 11 11 11 11 11 11 11 11 11 10 10 10 10 10 10 10 10 10 11 11 11 11 11 11 11 11 11 11 11 11 11 11 11 11 11 11
10 10 11 11 11 11 11 10 10 10 11 11 11 11 11 11 11 10 10 10 10 10 10 10 10 10 10 10 10 10 10 10 10 10 10 10 10 10 10 10 10 10 10 10 10 10 10 10 10
11 9 9 10 11 11 11 10 9 11 11 11 11 10 10 10 10 10 10 10 10 10 10 10 10 9 10 10 9 9 9 10 10 10 10 10 10 10 10 10 10 10 10 10 10 9 10 9 9
10 9 8 10 10 11 10 9 9 10 10 10 10 10 10 10 10 10 10 10 10 9 9 9 9 9 9 9 9 9 9 9 9 9 9 9 9 9 9 9 9 9 9 9 9 9 9 9 9
8 8 8 9 10 10 9 8 9 10 9 9 9 9 9 9 9 9 9 9 9 9 9 9 9 9 9 9 9 8 8 8 8 8 8 9 9 9 9 9 9 9 9 9 9 8 8 8 8
7 7 8 8 9 9 8 8 8 9 9 8 9 9 9 9 9 9 9 9 9 9 9 9 9 8 8 8 8 8 8 8 8 8 8 8 8 8 8 8 8 8 8 8 8 8 8 8 8
8 8 7 8 8 8 7 7 8 8 8 8 8 8 9 9 9 9 9 9 9 9 9 8 8 8 8 8 8 7 7 7 7 7 7 7 7 7 7 8 8 8 8 8 7 7 7 7 7
8 7 7 7 8 8 7 7 7 7 7 8 8 8 8 8 8 8 8 8 8 8 8 8 8 8 8 7 7 7 7 7 7 7 7 6 6 7 7 7 7 7 7 7 7 7 7 6 6
7 7 7 7 7 7 7 6 6 7 8 8 9 9 8 8 8 8 8 8 8 8 8 8 8 7 7 7 7 6 6 6 6 6 6 6 6 6 6 6 6 6 6 6 6 6 6 6 5
7 7 7 7 6 5 6 5 6 6 6 7 7 8 8 8 8 8 8 8 8 8 8 7 7 7 7 6 6 6 6 6 6 6 6 6 6 6 6 6 6 6 6 5 5 5 5 5 5
6 6 6 6 5 4 4 5 5 5 6 6 6 7 8 8 8 8 8 8 8 7 7 7 7 7 6 6 6 6 6 6 5 5 5 5 5 5 5 5 5 5 5 5 5 5 5 4 4
6 6 5 4 3 4 4 4 5 4 5 6 6 7 7 8 8 8 8 7 7 7 7 7 6 6 6 6 6 5 5 5 5 5 5 5 5 5 5 4 4 4 4 4 4 4 4 4 4
5 4 3 3 3 3 4 4 4 5 5 5 5 6 7 7 7 7 7 7 7 6 6 6 6 6 5 5 5 5 5 5 4 4 4 4 4 4 4 4 4 4 4 4 3 3 3 3 3
4 4 3 4 3 3 4 3 4 4 5 5 6 6 6 6 6 6 6 6 6 6 6 5 5 5 5 5 5 4 4 4 4 4 4 4 4 4 4 3 3 3 3 3 3 3 3 3 3
4 3 4 3 2 2 3 3 4 4 4 4 5 5 5 6 6 6 6 6 6 5 5 5 5 5 5 4 4 4 4 3 3 3 3 3 3 3 3 3 3 3 3 3 2 2 2 2 2
4 3 2 2 3 3 3 3 4 4 4 3 3 4 5 5 5 5 5 5 5 5 5 5 4 4 4 4 4 3 3 3 3 3 3 3 3 3 3 3 2 2 2 2 2 2 2 2 2
3 3 2 2 2 3 3 4 4 3 3 3 3 4 4 5 5 5 5 5 5 4 4 4 4 4 4 3 3 3 3 3 3 2 3 3 2 2 2 2 2 2 2 2 1 1 1 1 1
2 2 2 2 2 1 1 3 4 2 3 3 3 4 4 4 4 4 4 4 4 4 4 4 4 3 3 3 3 3 3 2 2 2 2 2 2 2 2 2 1 1 1 1 1 1 1 1 1
Wind_Speed
13 9 2 4 5 4 2 4 3 1 1 1 3 7 8 6 3 5 2 2 5 5 6 7 9 9 10 11 12 11 11 12 13 13 13 13 13 14 14 14 14 14 14 14 14 14 15 14 13
8 3 4 4 4 2 4 4 3 2 4 3 4 6 7 5 3 5 2 2 7 7 7 7 9 9 10 10 12 11 11 12 12 13 13 13 13 13 13 14 14 14 14 14 14 14 14 13 13
6 1 3 4 4 6 5 3 4 2 2 3 4 5 5 4 3 2 2 5 7 7 7 7 9 9 10 10 11 12 11 11 12 12 12 12 12 13 13 13 13 13 14 14 13 13 13 12 12
3 4 4 3 4 5 5 4 3 3 2 4 5 5 3 2 2 3 5 7 8 6 8 8 9 9 10 10 10 11 11 10 11 12 12 12 12 12 12 12 13 13 13 13 13 12 12 11 11
3 3 2 2 5 3 3 3 2 2 2 2 4 5 3 3 4 7 7 8 8 6 7 8 9 9 9 9 10 11 11 10 11 12 12 12 12 12 12 12 12 12 12 12 11 11 11 11 10
3 3 3 5 5 3 2 2 2 2 2 2 4 5 2 1 5 6 7 8 8 7 8 8 8 8 8 8 9 10 10 10 11 11 11 12 11 11 11 11 11 11 11 11 11 11 10 10 10
3 3 5 6 5 4 3 0 2 3 3 1 3 6 3 1 4 7 7 8 8 8 8 7 8 8 8 8 8 9 10 11 11 11 11 11 11 10 10 10 10 10 10 10 10 10 10 10 10
4 3 3 4 5 5 3 0 1 3 2 1 3 7 5 4 6 7 8 8 8 7 7 7 7 7 7 8 8 9 10 11 11 11 11 11 10 9 10 9 9 10 9 9 9 9 9 9 9
3 2 3 4 5 4 1 2 1 2 4 3 3 2 4 9 9 8 7 6 6 6 5 6 6 7 7 7 8 9 10 11 11 11 11 10 9 8 8 8 9 9 8 8 8 8 9 9 9
3 4 6 3 2 2 1 2 2 3 3 2 3 4 7 10 9 9 7 6 5 4 3 4 5 6 6 6 7 8 8 9 9 9 9 9 9 8 8 8 9 9 8 7 8 8 8 8 7
3 5 4 2 1 0 0 0 0 5 2 3 5 7 8 8 8 8 7 6 6 4 3 3 4 5 5 5 5 6 6 7 8 8 8 9 8 8 8 8 8 8 8 7 7 7 7 6 6
2 2 3 2 1 1 1 1 1 3 4 4 8 11 9 9 8 8 8 7 6 5 4 3 3 4 4 5 4 5 5 5 5 6 7 7 6 5 5 5 6 6 6 6 5 5 6 6 6
3 2 2 1 1 1 1 2 2 3 3 3 6 8 9 9 8 6 6 6 6 5 4 3 3 3 4 4 4 4 4 4 4 5 6 6 5 4 4 4 5 5 5 5 4 5 5 5 5
2 2 3 2 2 1 2 2 1 4 3 4 6 7 8 9 8 6 6 6 5 5 5 4 4 3 4 3 3 3 4 4 4 4 4 5 5 4 3 3 4 4 4 4 4 4 4 3 4
1 1 4 3 3 2 2 3 5 5 4 5 6 7 7 7 8 8 8 7 6 6 5 4 4 4 4 3 3 3 4 5 4 3 4 4 5 4 4 3 2 3 3 4 4 5 4 3 3
1 1 2 4 3 3 5 7 6 5 6 7 7 7 7 6 7 7 8 7 7 6 5 5 4 4 3 3 3 3 4 4 4 3 4 4 4 4 4 3 2 3 4 4 3 3 2 2 2
1 2 4 4 2 2 4 6 5 4 6 6 7 7 7 6 6 6 7 7 7 7 6 5 4 4 3 3 3 4 4 3 3 3 3 3 3 4 4 3 2 4 4 3 2 2 2 1 2
4 3 3 4 2 1 4 7 6 4 6 7 6 6 6 6 7 6 7 7 7 7 6 6 5 4 3 3 3 3 3 3 3 3 3 3 3 3 4 3 3 3 3 2 2 2 2 1 1
3 3 4 4 3 1 5 8 8 6 6 7 7 7 7 7 5 5 6 7 7 6 6 5 5 4 4 3 3 2 2 1 1 2 3 3 3 3 4 3 2 3 2 1 2 2 2 2 2
3 3 3 4 2 2 4 8 8 6 8 8 9 9 9 7 5 6 5 6 7 7 7 6 6 5 4 4 3 2 2 1 1 1 2 2 2 2 3 3 2 2 2 2 2 2 1 1 2
3 4 4 4 4 3 3 7 5 5 5 6 7 8 8 10 9 8 7 6 6 7 7 6 6 6 5 4 3 3 2 2 1 0 1 1 2 2 2 2 2 2 2 1 1 1 2 1 1
4 3 3 2 1 4 1 5 7 5 4 5 6 6 7 8 8 8 8 7 7 7 6 6 6 6 5 5 5 5 4 3 3 2 1 1 2 2 2 2 2 2 1 1 1 1 1 2 1
4 1 1 2 2 3 2 3 8 3 5 6 6 5 6 7 8 9 9 8 6 5 5 5 5 5 5 5 6 5 4 3 2 1 2 2 1 2 2 2 2 2 1 1 0 0 1 1 1
2 3 3 3 2 4 6 6 7 5 6 5 5 5 4 5 6 6 5 5 4 4 4 4 4 4 4 5 5 5 5 4 3 3 3 2 1 1 1 2 2 2 1 1 1 1 1 2 2
3 4 2 2 1 6 3 4 8 7 5 5 5 4 3 3 4 4 5 4 4 4 4 4 5 4 4 4 5 5 5 5 6 5 4 3 2 2 3 2 2 2 2 2 2 2 2 2 2
4 6 6 5 5 4 2 6 7 5 3 2 1 2 2 2 3 4 5 4 4 4 4 4 5 5 4 4 4 4 4 4 4 4 4 4 3 3 3 3 3 2 2 2 2 1 2 1 1
4 4 5 4 1 2 5 5 6 3 2 2 1 1 1 2 2 3 3 4 4 4 4 5 5 4 4 5 4 4 4 4 4 3 3 3 3 3 3 3 2 2 2 2 2 1 2 1 2
3 4 4 4 3 4 4 4 4 4 3 2 1 1 2 1 1 2 2 3 3 3 3 3 4 5 4 4 4 3 4 3 3 3 3 3 3 3 3 3 2 2 2 2 2 2 2 2 2
3 3 3 3 4 4 4 6 4 5 5 4 4 3 3 2 2 3 3 3 2 2 2 2 3 3 3 3 2 2 3 2 2 3 3 3 2 2 3 3 3 3 3 3 2 3 2 3 3
3 5 6 4 5 4 4 6 4 4 4 3 3 3 3 3 2 3 3 2 2 2 2 2 2 2 3 2 2 2 2 2 3 3 3 3 3 3 3 3 3 3 3 3 3 3 3 3 3
Wind_Direction
328 332 41 55 58 59 238 252 227 213 72 35 74 90 99 92 110 141 140 106 113 118 119 116 114 110 107 106 102 99 100 99 99 99 96 93 91 89 87 84 84 82 82 84 87 85 86 84 82
328 347 53 63 102 160 258 249 212 204 165 145 72 79 79 73 68 102 90 101 114 111 109 112 108 109 109 107 107 102 102 101 101 100 97 95 93 91 88 87 84 81 79 80 84 84 84 83 80
328 40 81 86 146 188 214 221 182 139 111 113 77 58 86 100 99 115 122 112 105 96 99 108 105 108 109 107 108 108 104 103 104 101 99 96 94 92 89 88 86 83 80 78 80 82 82 80 78
31 47 65 104 203 217 207 209 177 138 69 63 102 75 66 41 132 133 111 102 103 91 95 105 106 106 108 108 109 110 107 107 106 104 102 99 96 94 90 89 87 86 83 81 80 80 79 77 75
63 83 99 206 229 240 227 225 177 140 131 81 104 103 78 7 93 107 104 101 107 93 91 101 101 103 105 111 111 113 110 108 108 105 103 100 98 95 92 91 88 88 85 82 79 78 80 78 72
60 86 146 217 227 235 256 243 123 112 113 85 99 111 115 87 106 111 105 100 102 97 86 88 91 96 100 106 111 117 115 112 109 107 105 102 101 98 94 92 91 90 86 82 78 75 76 76 70
121 126 193 210 217 230 242 265 125 128 104 106 125 117 136 145 128 119 107 98 90 85 81 78 84 86 89 95 105 111 112 113 109 106 104 102 102 101 97 94 91 91 89 85 80 76 73 73 69
138 128 215 222 212 228 244 160 98 114 126 70 105 136 171 185 141 114 101 94 90 79 72 69 69 77 81 87 100 108 106 106 103 100 98 97 97 98 95 91 89 89 89 86 81 77 71 67 63
110 119 223 228 208 230 204 139 11 80 95 59 50 130 154 142 132 113 98 86 88 81 71 71 67 66 75 86 90 99 102 99 97 96 95 92 85 84 87 87 86 85 87 85 79 75 70 65 57
120 188 217 232 209 203 203 150 165 105 88 76 54 57 113 131 134 130 128 124 116 104 85 75 74 71 73 85 89 90 93 91 90 91 94 90 85 81 82 84 81 80 80 80 77 70 61 56 52
161 195 208 253 281 350 232 156 147 139 173 197 172 156 143 137 139 141 142 143 144 138 116 86 84 83 80 80 88 89 91 93 90 87 90 92 87 80 76 74 71 70 71 68 64 59 53 54 55
179 226 200 223 270 318 226 180 138 176 205 192 167 156 150 150 155 158 155 151 147 139 133 115 94 89 89 89 89 93 89 90 89 89 92 93 86 76 71 72 71 68 71 65 59 56 53 52 54
225 240 265 220 169 188 159 194 188 227 218 150 146 146 156 162 166 165 157 152 148 146 143 140 115 100 101 99 95 95 88 91 98 99 98 98 92 85 73 69 70 68 70 68 60 56 54 49 46
200 243 266 265 250 241 169 235 192 236 176 150 160 167 172 173 170 161 156 156 160 159 156 152 136 119 109 108 109 109 103 103 103 100 105 107 102 92 84 74 68 64 71 72 65 63 60 54 50
138 351 320 273 231 215 140 281 229 217 165 174 183 182 183 184 174 172 171 168 172 170 161 159 151 129 121 118 116 110 110 110 105 105 108 106 104 98 89 84 71 61 76 76 66 60 56 51 48
50 56 281 279 212 192 161 248 249 207 178 195 201 193 188 195 187 182 174 169 170 166 165 165 154 140 133 126 120 111 107 107 109 111 106 106 104 104 93 81 75 72 78 74 78 65 58 42 30
13 218 234 276 240 177 181 241 251 215 187 205 211 203 194 199 198 190 177 171 169 167 167 167 155 147 142 129 118 110 109 103 102 107 102 102 103 106 99 85 70 81 77 76 78 65 62 47 20
214 217 233 239 259 162 221 247 259 234 204 215 220 211 207 206 208 191 175 168 166 165 164 165 159 150 139 119 102 90 89 89 98 103 100 106 111 112 104 92 73 80 85 79 81 76 52 56 32
200 204 240 256 269 229 238 254 257 237 225 226 225 217 217 217 209 184 174 168 163 161 158 164 164 162 152 149 150 151 151 140 120 109 108 111 114 114 104 93 84 74 91 96 96 89 73 44 39
225 243 261 291 309 258 262 268 261 238 226 224 220 217 213 209 202 191 182 175 174 171 169 169 172 173 170 170 172 166 154 159 166 128 113 118 117 116 118 109 112 93 83 77 82 79 89 53 40
230 215 223 251 326 335 316 299 277 263 245 236 221 214 209 203 199 196 190 189 181 180 179 176 178 178 176 161 135 114 91 74 63 166 183 158 141 132 126 133 123 108 100 121 163 136 125 133 350
236 238 218 231 322 297 358 290 283 272 269 249 236 220 211 207 198 194 193 192 190 190 183 178 178 176 176 163 156 160 169 178 201 202 206 197 155 147 136 142 131 124 121 129 196 132 137 141 187
208 221 186 199 189 291 271 232 283 290 261 255 242 231 217 204 194 192 194 192 187 179 175 177 171 173 174 172 171 176 188 189 173 166 170 181 184 177 171 156 145 154 156 166 159 118 180 178 189
158 60 40 46 93 259 231 201 274 246 236 245 240 232 216 196 185 183 178 168 168 162 162 166 167 175 177 177 176 184 189 182 174 189 194 199 201 195 189 173 173 185 187 193 209 200 217 210 197
104 100 33 345 302 246 228 205 252 261 251 231 226 224 211 176 163 160 158 163 167 164 168 168 169 179 182 180 182 190 194 191 195 198 202 199 200 212 213 200 196 202 211 211 201 197 226 219 210
187 161 173 204 225 266 262 225 255 276 284 261 217 180 137 144 157 162 166 166 172 178 181 179 181 187 188 187 193 195 192 195 205 205 205 207 211 216 208 204 207 210 209 219 205 210 228 223 227
161 198 183 151 198 260 257 272 295 303 335 355 18 94 150 171 172 178 183 176 178 182 189 185 183 190 196 196 194 195 197 199 207 208 203 210 211 213 202 202 208 215 210 208 204 220 231 226 227
164 154 121 150 193 245 266 255 243 264 263 265 241 225 227 211 190 195 195 190 191 195 195 181 179 191 197 195 195 196 197 203 204 206 209 212 209 208 202 208 212 214 213 209 207 232 236 229 245
163 165 163 165 186 192 248 260 224 219 220 215 225 225 223 222 220 215 209 196 185 171 176 183 191 193 196 193 190 192 198 197 198 205 210 206 204 204 205 207 209 218 219 216 211 222 224 230 247
196 189 166 177 227 200 209 262 270 226 232 217 233 248 248 228 226 227 214 191 176 176 185 192 199 201 210 204 192 200 208 195 196 210 218 205 204 209 210 208 211 222 226 220 212 224 230 228 238
Height
1514 1514 1514 1516 1520 1529 1530 1522 1515 1513 1514 1514 1513 1513 1515 1520 1524 1531 1529 1528 1529 1531 1532 1532 1533 1534 1535 1535 1535 1535 1536 1536 1536 1536 1536 1536 1536 1536 1537 1537 1537 1537 1537 1537 1537 1537 1537 1537 1537
1513 1514 1516 1516 1525 1535 1530 1519 1515 1512 1512 1513 1513 1514 1516 1520 1522 1525 1526 1528 1529 1531 1531 1532 1533 1534 1534 1535 1535 1535 1536 1536 1536 1536 1537 1537 1537 1537 1537 1538 1538 1538 1537 1537 1537 1537 1537 1538 1538
1513 1513 1515 1518 1526 1529 1523 1514 1512 1511 1512 1512 1514 1516 1518 1522 1523 1525 1526 1528 1529 1530 1531 1532 1533 1533 1534 1535 1535 1535 1536 1536 1536 1536 1537 1537 1537 1538 1538 1538 1538 1538 1538 1538 1538 1538 1538 1538 1538
1513 1514 1516 1521 1522 1518 1514 1512 1511 1511 1512 1512 1514 1518 1520 1523 1524 1525 1526 1527 1529 1530 1531 1532 1533 1533 1533 1534 1535 1535 1535 1536 1536 1536 1537 1537 1537 1538 1538 1538 1538 1539 1539 1539 1539 1539 1539 1539 1539
1512 1513 1519 1523 1519 1514 1511 1510 1510 1511 1512 1513 1514 1518 1521 1524 1524 1525 1526 1527 1528 1529 1531 1532 1532 1533 1533 1534 1534 1535 1535 1535 1536 1536 1536 1537 1537 1538 1538 1539 1539 1539 1539 1539 1539 1539 1539 1539 1539
1512 1513 1523 1523 1517 1512 1510 1510 1510 1511 1512 1514 1515 1518 1522 1523 1524 1525 1526 1527 1528 1529 1530 1531 1531 1532 1533 1533 1534 1534 1535 1535 1535 1536 1536 1537 1537 1538 1538 1538 1539 1539 1539 1539 1539 1539 1539 1539 1539
1512 1515 1519 1517 1516 1513 1510 1510 1511 1512 1513 1514 1515 1518 1521 1523 1524 1525 1526 1527 1528 1529 1529 1530 1531 1531 1532 1532 1533 1534 1534 1535 1535 1536 1536 1537 1537 1537 1538 1538 1538 1539 1539 1539 1539 1539 1539 1539 1539
1511 1515 1515 1515 1514 1512 1509 1510 1511 1511 1513 1515 1515 1517 1519 1522 1523 1524 1525 1527 1527 1528 1529 1529 1530 1530 1531 1531 1532 1533 1534 1534 1535 1535 1536 1536 1537 1537 1537 1538 1538 1538 1538 1538 1538 1538 1538 1538 1538
1510 1517 1517 1513 1512 1510 1508 1509 1511 1512 1513 1514 1515 1516 1517 1520 1521 1523 1524 1525 1526 1527 1528 1528 1529 1529 1530 1530 1531 1532 1533 1534 1534 1535 1536 1536 1536 1536 1537 1537 1537 1537 1538 1538 1538 1538 1538 1538 1538
1509 1515 1512 1510 1509 1508 1508 1509 1510 1512 1513 1514 1515 1516 1517 1519 1520 1521 1522 1523 1524 1525 1527 1527 1528 1528 1529 1530 1530 1531 1532 1533 1533 1534 1535 1535 1536 1536 1536 1536 1536 1537 1537 1537 1537 1537 1537 1537 1537
1507 1510 1509 1508 1508 1508 1508 1509 1510 1511 1513 1513 1513 1515 1516 1518 1519 1520 1521 1522 1523 1524 1525 1526 1527 1527 1528 1529 1529 1530 1531 1532 1533 1533 1534 1534 1535 1535 1535 1535 1535 1535 1535 1536 1536 1536 1536 1536 1536
1506 1506 1506 1507 1507 1507 1508 1509 1510 1510 1511 1512 1512 1513 1514 1516 1517 1518 1519 1521 1522 1523 1524 1525 1526 1526 1527 1528 1528 1529 1530 1531 1531 1532 1533 1533 1533 1534 1534 1534 1534 1534 1534 1534 1534 1534 1534 1535 1535
1506 1506 1506 1506 1506 1507 1507 1508 1509 1509 1509 1510 1511 1512 1513 1514 1516 1517 1519 1520 1521 1521 1522 1523 1524 1525 1526 1526 1527 1528 1528 1529 1530 1531 1531 1531 1532 1532 1532 1532 1532 1533 1532 1532 1532 1533 1532 1533 1533
1505 1505 1505 1505 1505 1506 1506 1508 1508 1507 1507 1509 1510 1511 1512 1513 1514 1515 1517 1518 1519 1520 1521 1522 1523 1524 1524 1525 1525 1526 1527 1527 1528 1529 1529 1529 1530 1530 1530 1530 1531 1531 1531 1531 1531 1531 1531 1531 1531
1504 1506 1505 1504 1504 1505 1506 1508 1506 1505 1507 1507 1508 1509 1510 1511 1512 1513 1514 1516 1517 1518 1519 1520 1521 1522 1523 1523 1524 1524 1525 1525 1526 1527 1527 1528 1528 1528 1528 1528 1529 1529 1529 1529 1529 1529 1529 1529 1529
1505 1508 1509 1504 1503 1503 1508 1509 1503 1503 1505 1505 1506 1507 1508 1509 1510 1511 1512 1514 1515 1516 1518 1519 1519 1520 1521 1521 1522 1523 1523 1524 1524 1524 1525 1525 1526 1526 1526 1527 1527 1527 1527 1528 1528 1527 1527 1527 1527
1509 1512 1509 1506 1502 1502 1505 1506 1502 1502 1502 1503 1503 1504 1505 1507 1508 1509 1510 1512 1513 1514 1516 1517 1517 1518 1519 1519 1520 1521 1521 1522 1522 1522 1522 1523 1523 1524 1525 1525 1525 1525 1526 1526 1526 1526 1526 1525 1525
1511 1511 1508 1507 1503 1503 1505 1504 1501 1500 1500 1500 1501 1501 1502 1503 1504 1506 1507 1509 1511 1512 1513 1514 1515 1516 1517 1517 1518 1518 1519 1520 1520 1520 1520 1521 1521 1521 1522 1523 1523 1523 1524 1524 1524 1524 1524 1523 1522
1505 1507 1509 1507 1503 1504 1504 1502 1499 1498 1498 1498 1498 1498 1499 1500 1502 1504 1505 1507 1508 1509 1510 1511 1512 1513 1514 1514 1515 1515 1516 1517 1518 1518 1519 1519 1519 1519 1520 1520 1521 1521 1521 1521 1521 1521 1521 1521 1520
1505 1507 1508 1506 1503 1503 1503 1501 1496 1495 1494 1493 1493 1494 1495 1497 1499 1501 1502 1503 1505 1506 1507 1508 1509 1510 1511 1512 1512 1513 1514 1515 1516 1516 1516 1517 1517 1517 1517 1518 1518 1518 1519 1519 1519 1519 1518 1518 1518
1505 1507 1507 1507 1505 1503 1504 1501 1496 1492 1490 1490 1490 1491 1492 1493 1495 1497 1499 1500 1502 1503 1504 1505 1506 1507 1508 1509 1510 1511 1512 1512 1513 1514 1514 1514 1515 1515 1515 1516 1516 1516 1516 1516 1516 1516 1516 1516 1516
1505 1504 1504 1505 1509 1513 1509 1512 1498 1492 1490 1488 1488 1488 1488 1490 1492 1494 1496 1497 1499 1500 1502 1503 1504 1504 1505 1506 1507 1507 1508 1509 1510 1511 1511 1512 1512 1512 1513 1513 1513 1513 1513 1514 1514 1514 1514 1514 1514
1503 1503 1504 1506 1510 1514 1513 1513 1502 1494 1491 1487 1486 1485 1486 1487 1489 1491 1493 1495 1496 1498 1499 1500 1501 1502 1502 1503 1504 1505 1505 1506 1507 1508 1509 1509 1509 1510 1510 1510 1510 1511 1511 1511 1511 1511 1512 1512 1511
1502 1505 1508 1511 1515 1518 1512 1513 1503 1496 1489 1485 1484 1483 1483 1485 1487 1489 1490 1492 1494 1495 1497 1498 1498 1499 1500 1500 1501 1502 1503 1503 1504 1505 1505 1506 1506 1507 1507 1507 1508 1508 1508 1508 1509 1509 1509 1509 1509
1504 1511 1519 1520 1524 1518 1508 1509 1501 1488 1485 1483 1482 1482 1482 1483 1485 1486 1488 1489 1491 1492 1494 1495 1495 1496 1497 1497 1498 1499 1500 1500 1501 1501 1502 1502 1502 1503 1504 1504 1505 1505 1505 1505 1506 1506 1506 1506 1505
1504 1508 1517 1519 1520 1514 1508 1507 1495 1486 1483 1482 1482 1482 1482 1483 1484 1485 1486 1487 1489 1490 1491 1492 1492 1493 1494 1495 1495 1496 1497 1498 1498 1499 1499 1499 1499 1500 1500 1501 1502 1502 1502 1503 1503 1503 1502 1502 1502
1503 1507 1507 1515 1518 1518 1509 1502 1492 1484 1483 1482 1482 1482 1482 1483 1484 1485 1486 1486 1487 1488 1488 1489 1490 1491 1491 1492 1493 1493 1494 1495 1495 1495 1496 1496 1496 1497 1497 1498 1499 1499 1499 1500 1500 1499 1499 1499 1499
1501 1503 1510 1514 1515 1513 1507 1503 1495 1487 1485 1483 1483 1482 1482 1483 1483 1484 1484 1485 1485 1486 1486 1487 1488 1488 1489 1489 1490 1490 1491 1492 1492 1492 1492 1493 1493 1494 1494 1494 1495 1495 1496 1496 1496 1496 1495 1495 1495
1502 1505 1506 1510 1511 1511 1509 1499 1485 1484 1482 1482 1481 1481 1481 1482 1482 1483 1483 1483 1484 1484 1485 1485 1485 1486 1486 1486 1487 1487 1488 1488 1489 1489 1490 1490 1490 1490 1491 1491 1491 1492 1492 1492 1492 1492 1492 1492 1491
1500 1501 1505 1509 1511 1512 1513 1500 1481 1481 1480 1480 1480 1480 1480 1481 1481 1482 1482 1482 1482 1482 1483 1483 1483 1483 1484 1484 1484 1485 1485 1485 1486 1486 1487 1487 1487 1487 1487 1487 1488 1488 1488 1488 1488 1488 1488 1488 1488